Date String (YYYY-MM-DD hh:mm:ss) UTC,Instrument flags,absolute air pressure of the measurement (hPa),sample flow rate (lpm),inlet stack bypass flow (lpm),air temperature of the measurement (°C),ambient temperature measured by the external sensor (°C),aerosol sample conditioner tube jacket temperature (°C),OPC LED temperature (°C),internal box temperature (°C),relative humidity of the measurement (%),span deviation,mass concentration of particles derived from Lorenz-Mie calculation of OPC scattering (μg/m³),mass concentration of particles derived from Lorenz-Mie calculation of OPC scattering (μg/m³),mass concentration of particles derived from Lorenz-Mie calculation of OPC scattering (μg/m³)
DateTimeUTC,F1_M11,P_M11,Q1_M11,Q2_M11,T1_M11,T2_M11,T3_M11,T4_M11,T5_M11,U1_M11,ZSPAN_M11,X2_M11,X0_M11,X1_M11
2023-10-20 16:00:00,SystemResetWarning,0832.1,5.00,000.00,028.6,026.5,000.0,037.1,030.2,10.4,0000.0,0000.70,0004.51,0000.46
2023-10-20 16:01:00,SystemResetWarning,0832.2,5.00,000.00,028.6,026.8,000.0,037.1,030.3,10.1,0000.0,0000.67,0005.16,0000.45
2023-10-20 16:02:00,SystemResetWarning,0832.2,4.99,000.00,028.6,027.0,000.0,037.1,030.3,10.2,0000.0,0000.69,0006.97,0000.45
2023-10-20 16:03:00,SystemResetWarning,0832.2,4.98,000.00,028.6,027.2,000.0,037.1,030.4,11.0,0000.0,0000.71,0007.30,0000.45
2023-10-20 16:04:00,SystemResetWarning,0832.2,5.02,000.00,028.7,027.4,000.0,037.1,030.4,11.4,0000.0,0000.71,0007.30,0000.45
2023-10-20 16:05:00,SystemResetWarning,0832.2,5.00,000.00,028.7,027.5,000.0,037.1,030.5,11.9,0000.0,0000.72,0008.04,0000.46
2023-10-20 16:06:00,SystemResetWarning,0832.2,4.98,000.00,028.8,027.5,000.0,037.1,030.6,11.0,0000.0,0000.72,0008.04,0000.45
2023-10-20 16:07:00,SystemResetWarning,0832.2,5.00,000.00,028.7,026.0,000.0,037.1,030.5,10.8,0000.0,0000.75,0007.55,0000.45
2023-10-20 16:08:00,SystemResetWarning,0832.2,5.01,000.00,028.7,024.8,000.0,037.0,030.3,10.7,0000.0,0000.76,0007.39,0000.45
2023-10-20 16:09:00,SystemResetWarning,0832.2,5.01,000.00,028.6,025.0,000.0,037.0,030.2,10.8,0000.0,0000.79,0006.53,0000.44
2023-10-20 16:10:00,SystemResetWarning,0832.2,5.00,000.00,028.6,025.3,000.0,037.0,030.1,11.0,0000.0,0000.80,0005.93,0000.44
2023-10-20 16:11:00,SystemResetWarning,0832.1,5.00,000.00,028.5,025.7,000.0,037.0,030.1,11.1,0000.0,0000.77,0005.73,0000.44
2023-10-20 16:12:00,SystemResetWarning,0832.1,5.00,000.00,028.5,026.0,000.0,037.0,030.1,11.3,0000.0,0000.75,0005.73,0000.44
2023-10-20 16:13:00,SystemResetWarning,0832.1,5.01,000.00,028.5,026.4,000.0,037.0,030.2,11.3,0000.0,0000.73,0003.77,0000.44
2023-10-20 16:14:00,SystemResetWarning,0832.1,5.00,000.00,028.5,026.7,000.0,037.0,030.2,11.3,0000.0,0000.70,0003.00,0000.45
2023-10-20 16:15:00,SystemResetWarning,0832.1,5.00,000.00,028.6,026.9,000.0,037.0,030.3,11.2,0000.0,0000.71,0003.02,0000.45
2023-10-20 16:16:00,SystemResetWarning,0832.1,5.00,000.00,028.6,027.2,000.0,037.0,030.4,11.0,0000.0,0000.71,0001.93,0000.45
2023-10-20 16:17:00,SystemResetWarning,0832.2,5.00,000.00,028.6,027.4,000.0,037.0,030.4,11.2,0000.0,0000.73,0001.77,0000.45
2023-10-20 16:18:00,SystemResetWarning,0832.1,5.00,000.00,028.7,027.5,000.0,037.1,030.5,11.6,0000.0,0000.73,0001.82,0000.45
2023-10-20 16:19:00,SystemResetWarning,0832.2,4.99,000.00,028.7,027.6,000.0,037.1,030.6,11.7,0000.0,0000.72,0001.80,0000.45
2023-10-20 16:20:00,SystemResetWarning,0832.2,4.99,000.00,028.7,026.6,000.0,037.1,030.5,11.6,0000.0,0000.69,0001.71,0000.44
2023-10-20 16:21:00,SystemResetWarning,0832.2,5.00,000.00,028.7,025.0,000.0,037.0,030.3,11.4,0000.0,0000.63,0001.64,0000.43
2023-10-20 16:22:00,SystemResetWarning,0832.2,5.02,000.00,028.6,024.9,000.0,036.9,030.2,11.3,0000.0,0000.66,0001.80,0000.42
2023-10-20 16:23:00,SystemResetWarning,0832.2,5.00,000.00,028.6,025.2,000.0,037.0,030.1,11.2,0000.0,0000.67,0001.53,0000.42
2023-10-20 16:24:00,SystemResetWarning,0832.2,5.00,000.00,028.5,025.6,000.0,037.0,030.1,11.2,0000.0,0000.69,0001.46,0000.42
2023-10-20 16:25:00,SystemResetWarning,0832.2,5.00,000.00,028.5,026.0,000.0,037.0,030.1,11.4,0000.0,0000.72,0001.52,0000.41
2023-10-20 16:26:00,SystemResetWarning,0832.2,5.00,000.00,028.5,026.3,000.0,037.0,030.2,11.7,0000.0,0000.71,0001.54,0000.40
2023-10-20 16:27:00,SystemResetWarning,0832.2,5.00,000.00,028.5,026.6,000.0,037.0,030.2,11.7,0000.0,0000.71,0001.76,0000.39
2023-10-20 16:28:00,SystemResetWarning,0832.3,4.99,000.00,028.6,026.9,000.0,037.0,030.3,12.0,0000.0,0000.73,0002.55,0000.39
2023-10-20 16:29:00,SystemResetWarning,0832.3,5.00,000.00,028.6,027.1,000.0,037.0,030.3,12.4,0000.0,0000.76,0002.69,0000.41
2023-10-20 16:30:00,SystemResetWarning,0832.3,5.00,000.00,028.6,027.3,000.0,037.0,030.4,12.2,0000.0,0000.82,0002.76,0000.43
2023-10-20 16:31:00,SystemResetWarning,0832.3,5.00,000.00,028.7,027.5,000.0,037.0,030.5,12.0,0000.0,0000.89,0002.95,0000.47
2023-10-20 16:32:00,SystemResetWarning,0832.2,5.01,000.00,028.7,027.5,000.0,037.1,030.5,12.1,0000.0,0000.94,0003.38,0000.50
2023-10-20 16:33:00,SystemResetWarning,0832.2,4.98,000.00,028.7,026.2,000.0,037.0,030.5,11.8,0000.0,0000.95,0003.35,0000.51
2023-10-20 16:34:00,SystemResetWarning,0832.2,5.01,000.00,028.6,024.9,000.0,036.9,030.3,11.7,0000.0,0000.98,0003.45,0000.52
2023-10-20 16:35:00,SystemResetWarning,0832.2,5.01,000.00,028.6,025.0,000.0,036.9,030.2,11.8,0000.0,0001.00,0003.70,0000.53
2023-10-20 16:36:00,SystemResetWarning,0832.2,5.00,000.00,028.5,025.3,000.0,036.9,030.0,11.1,0000.0,0000.96,0003.64,0000.53
2023-10-20 16:37:00,SystemResetWarning,0832.2,5.00,000.00,028.5,025.6,000.0,037.0,030.1,11.4,0000.0,0000.93,0003.56,0000.53
2023-10-20 16:38:00,SystemResetWarning,0832.2,5.00,000.00,028.5,026.0,000.0,037.0,030.1,11.5,0000.0,0000.95,0003.54,0000.54
2023-10-20 16:39:00,SystemResetWarning,0832.2,5.01,000.00,028.5,026.4,000.0,037.0,030.1,11.8,0000.0,0000.92,0003.49,0000.55
2023-10-20 16:40:00,SystemResetWarning,0832.2,4.99,000.00,028.5,026.7,000.0,037.0,030.2,12.2,0000.0,0000.90,0004.03,0000.54
2023-10-20 16:41:00,SystemResetWarning,0832.2,5.00,000.00,028.5,026.9,000.0,037.0,030.3,12.4,0000.0,0000.87,0004.41,0000.52
2023-10-20 16:42:00,SystemResetWarning,0832.2,5.00,000.00,028.6,027.2,000.0,037.0,030.4,11.8,0000.0,0000.86,0004.44,0000.50
2023-10-20 16:43:00,SystemResetWarning,0832.2,5.00,000.00,028.6,027.4,000.0,037.0,030.4,11.8,0000.0,0000.83,0004.05,0000.48
2023-10-20 16:44:00,SystemResetWarning,0832.2,5.00,000.00,028.7,027.5,000.0,037.0,030.5,12.1,0000.0,0000.82,0004.01,0000.47
2023-10-20 16:45:00,SystemResetWarning,0832.2,4.99,000.00,028.7,026.7,000.0,037.0,030.5,12.3,0000.0,0000.81,0004.17,0000.47
2023-10-20 16:46:00,SystemResetWarning,0832.2,5.01,000.00,028.6,025.0,000.0,036.9,030.2,12.8,0000.0,0000.78,0004.21,0000.47
2023-10-20 16:47:00,SystemResetWarning,0832.2,5.00,000.00,028.5,024.8,000.0,036.9,030.2,12.9,0000.0,0000.78,0004.23,0000.47
2023-10-20 16:48:00,SystemResetWarning,0832.2,5.01,000.00,028.5,025.2,000.0,036.9,030.0,13.1,0000.0,0000.85,0004.71,0000.48
2023-10-20 16:49:00,SystemResetWarning,0832.2,4.99,000.00,028.5,025.5,000.0,036.9,030.0,13.6,0000.0,0000.92,0005.26,0000.48
2023-10-20 16:50:00,SystemResetWarning,0832.2,5.00,000.00,028.4,025.9,000.0,036.9,030.0,13.9,0000.0,0000.96,0005.51,0000.49
2023-10-20 16:51:00,SystemResetWarning,0832.3,5.00,000.00,028.4,026.3,000.0,036.9,030.1,13.9,0000.0,0000.98,0005.90,0000.49
2023-10-20 16:52:00,SystemResetWarning,0832.3,5.00,000.00,028.5,026.6,000.0,036.9,030.2,13.9,0000.0,0001.00,0007.35,0000.50
2023-10-20 16:53:00,SystemResetWarning,0832.2,5.00,000.00,028.5,026.9,000.0,036.9,030.3,13.7,0000.0,0001.01,0008.38,0000.50
2023-10-20 16:54:00,SystemResetWarning,0832.3,5.00,000.00,028.5,027.1,000.0,036.9,030.3,13.8,0000.0,0001.02,0008.99,0000.51
2023-10-20 16:55:00,SystemResetWarning,0832.3,4.99,000.00,028.6,027.3,000.0,037.0,030.4,13.7,0000.0,0001.17,0010.06,0000.52
2023-10-20 16:56:00,SystemResetWarning,0832.3,4.99,000.00,028.6,027.4,000.0,037.0,030.4,13.9,0000.0,0001.29,0010.26,0000.54
2023-10-20 16:57:00,SystemResetWarning,0832.3,5.00,000.00,028.6,026.1,000.0,036.9,030.4,13.9,0000.0,0001.35,0010.50,0000.55
2023-10-20 16:58:00,SystemResetWarning,0832.2,5.01,000.00,028.5,024.8,000.0,036.9,030.2,13.8,0000.0,0001.43,0011.90,0000.56
2023-10-20 16:59:00,SystemResetWarning,0832.2,5.02,000.00,028.5,024.9,000.0,036.8,030.1,13.8,0000.0,0001.44,0011.87,0000.56
